RH
38 41 43 45 53 73 62 53 43 41 42 42 43 43 42 40 38 34 30 27 24 23 22 20 19 18 17
41 44 46 52 85 81 60 49 47 48 48 47 46 45 44 41 37 32 29 26 24 22 20 19 17 16 16
57 56 68 90 92 71 55 53 53 53 51 51 50 48 45 40 35 31 28 25 23 21 19 17 16 15 14
96 96 95 95 93 81 60 58 58 58 57 56 52 48 44 39 34 30 27 24 22 20 18 17 16 15 14
95 94 95 96 95 94 86 72 64 62 59 56 52 49 45 40 35 31 27 25 22 21 19 18 17 16 14
95 95 95 96 95 94 93 94 78 68 61 57 52 50 47 43 38 32 29 27 25 23 21 20 18 16 15
93 92 90 96 97 95 95 95 82 67 60 54 51 47 46 43 39 36 33 30 27 24 22 20 18 16 14
92 92 92 96 94 90 93 89 80 72 61 53 51 48 47 45 42 38 36 32 29 24 20 17 14 12 11
98 98 98 89 86 91 94 89 78 69 62 56 54 50 48 44 42 40 38 33 28 21 16 13 11 9 9
98 98 99 97 99 94 86 78 74 70 69 64 60 56 50 47 45 42 38 32 26 20 16 14 13 14 15
98 97 98 99 100 100 100 100 95 82 75 71 66 62 58 53 50 44 38 31 24 20 18 20 22 25 26
93 94 97 96 96 99 99 99 96 90 83 78 73 67 62 56 50 41 35 31 31 31 32 34 34 35 36
100 100 100 94 91 86 84 84 87 86 80 81 81 75 72 60 52 45 44 46 51 50 49 48 48 48 47
65 67 74 92 87 67 62 52 49 48 58 81 100 100 85 77 74 69 69 69 67 67 67 64 60 56 52
24 29 35 38 62 97 100 100 99 89 83 84 88 95 95 95 92 84 80 75 70 78 85 73 62 55 49
39 37 47 67 84 100 100 100 100 100 94 85 78 84 90 82 77 83 79 78 73 71 69 68 59 48 41
66 66 69 75 83 92 100 100 93 99 100 100 100 100 100 92 66 92 97 77 72 67 65 59 51 36 31
Wind_Speed
43 43 42 44 44 44 44 44 42 42 41 41 41 41 42 43 43 43 43 43 42 41 40 42 43 44 44
45 46 45 46 48 47 47 46 44 43 42 41 42 44 44 44 44 44 43 42 43 41 40 42 43 45 45
50 51 51 50 48 48 47 47 45 43 43 43 44 46 45 45 45 44 44 43 45 44 43 44 45 46 47
55 53 52 49 49 48 48 46 45 45 45 45 46 47 47 46 46 44 44 45 46 47 47 47 48 49 50
52 52 52 51 50 49 49 48 48 48 47 47 48 48 48 47 47 46 47 47 48 49 50 51 52 53 54
51 52 52 51 51 51 51 50 49 51 49 49 51 51 51 51 49 49 50 51 51 52 52 53 54 55 57
55 54 55 51 50 51 50 52 52 51 52 52 51 53 53 52 53 53 53 54 54 55 55 56 57 58 59
58 55 53 51 52 52 53 55 55 54 54 56 54 55 56 56 57 58 56 55 57 58 58 58 59 59 61
56 56 56 55 55 54 55 56 56 55 55 58 59 60 59 60 60 60 58 57 57 58 58 58 59 60 62
57 56 56 56 56 57 57 57 57 58 58 60 61 62 63 64 63 60 58 59 57 57 57 58 58 60 62
57 57 57 57 56 56 56 57 59 62 59 60 62 63 63 65 63 61 60 57 55 55 55 56 57 57 59
57 58 58 59 58 56 56 57 59 61 59 59 61 61 61 62 61 58 57 55 54 54 55 55 56 56 57
58 57 58 59 59 59 58 57 56 58 59 56 54 55 56 58 58 56 54 51 51 54 54 53 54 55 57
53 52 51 46 48 52 52 52 51 53 53 53 52 54 55 54 53 53 51 51 50 51 53 54 54 55 56
49 48 48 47 49 43 40 40 40 43 47 50 50 47 46 47 49 50 51 51 50 51 52 55 55 54 53
43 45 45 46 45 36 36 37 37 37 38 42 44 46 49 52 50 53 52 51 50 50 51 54 56 51 53
34 35 38 43 43 42 46 48 46 42 45 47 49 50 53 55 48 48 48 48 48 49 50 53 55 53 52
Wind_Direction
250 252 255 259 263 266 268 267 268 268 269 271 273 276 278 279 281 281 279 278 278 277 278 276 276 276 275
249 252 254 256 262 265 264 265 265 266 268 270 272 274 277 279 279 278 278 278 277 277 276 277 278 277 277
248 250 254 258 260 261 262 263 264 266 267 270 272 274 276 277 277 277 278 279 280 280 279 278 278 278 278
251 253 254 254 256 258 261 263 264 266 267 269 272 273 274 274 275 276 277 278 279 280 281 280 279 279 279
257 259 259 259 259 259 260 264 267 268 269 271 271 273 273 273 275 275 276 277 277 278 280 280 280 280 279
267 267 266 266 267 266 265 266 269 269 271 272 274 274 275 276 276 277 277 277 277 278 279 280 279 279 278
266 267 267 268 268 269 269 268 268 270 273 273 274 275 277 278 278 278 280 281 282 282 280 279 278 277 276
268 267 266 267 266 266 266 266 268 270 272 274 275 275 276 277 277 278 279 282 281 280 279 278 277 276 275
264 267 269 268 266 264 265 266 266 268 271 273 276 277 277 276 276 278 281 280 279 277 276 275 274 274 272
259 260 262 264 266 268 269 268 269 272 275 276 276 277 276 276 278 279 278 277 275 273 271 270 269 269 269
261 260 260 261 262 265 268 271 274 276 277 278 279 279 279 279 280 280 280 277 272 269 267 267 267 268 269
267 266 266 265 265 265 267 268 269 272 274 275 276 275 276 277 278 277 276 275 273 270 268 267 268 270 272
264 266 269 270 271 270 268 268 268 270 272 272 272 272 273 275 276 274 274 271 272 273 274 274 272 272 272
260 261 263 264 270 269 271 270 267 265 265 266 269 271 273 274 274 274 273 275 275 277 279 278 278 278 278
259 258 258 258 258 258 264 267 266 265 263 262 265 270 271 272 272 274 278 279 278 280 280 280 278 279 282
257 258 256 254 255 257 259 255 258 266 268 267 269 274 276 274 275 281 280 280 279 278 279 282 282 282 283
263 263 261 260 259 255 253 261 264 258 251 257 265 270 274 275 276 277 279 278 279 279 281 283 286 284 283